This is the latest recevied weather packets stored in our database for station/object DG0PX-12. If no packets are shown the sender has not sent any weather packets the latest 10 day(s).
| Time | Temp. | Humidity | Pressure | Rain* | Wind** | Luminosity | Snow |
|---|---|---|---|---|---|---|---|
| 1777534159 | 8.33° C | 34% | 958.6 hPa | - | - | - | - |
| 1777533259 | 6.67° C | 35% | 958.8 hPa | - | - | - | - |
| 1777532359 | 6.67° C | 35% | 958.7 hPa | - | - | - | - |
| 1777531459 | 5.56° C | 37% | 958.7 hPa | - | - | - | - |
| 1777530559 | 5.56° C | 37% | 958.7 hPa | - | - | - | - |
| 1777529659 | 6.11° C | 38% | 958.5 hPa | - | - | - | - |
| 1777528759 | 5° C | 38% | 958.4 hPa | - | - | - | - |
| 1777527859 | 5° C | 40% | 958.4 hPa | - | - | - | - |
| 1777526959 | 4.44° C | 41% | 958.3 hPa | - | - | - | - |
| 1777526059 | 3.89° C | 42% | 958.4 hPa | - | - | - | - |
| 1777525159 | 4.44° C | 41% | 958.3 hPa | - | - | - | - |
| 1777524258 | 3.89° C | 41% | 958 hPa | - | - | - | - |
| 1777523358 | 3.89° C | 41% | 958.1 hPa | - | - | - | - |
| 1777522458 | 3.33° C | 42% | 957.9 hPa | - | - | - | - |
| 1777521558 | 2.78° C | 43% | 957.8 hPa | - | - | - | - |
| 1777520658 | 3.33° C | 40% | 957.6 hPa | - | - | - | - |
| 1777519758 | 3.33° C | 41% | 957.7 hPa | - | - | - | - |
| 1777518858 | 3.89° C | 40% | 957.5 hPa | - | - | - | - |
| 1777517958 | 2.78° C | 41% | 957.6 hPa | - | - | - | - |
| 1777517058 | 2.78° C | 41% | 957.6 hPa | - | - | - | - |
| 1777516158 | 3.33° C | 40% | 957.7 hPa | - | - | - | - |
| 1777515258 | 3.89° C | 39% | 957.6 hPa | - | - | - | - |
| 1777514358 | 4.44° C | 38% | 957.6 hPa | - | - | - | - |
| 1777513458 | 3.89° C | 38% | 957.6 hPa | - | - | - | - |
| 1777512558 | 4.44° C | 38% | 957.6 hPa | - | - | - | - |
* Rain since midnight (hover to see other rain measurements)
** Current wind speed in m/s (hover to see current wind gust speed)